Regional Weather Roundup
Issued by NWS Newport/Morehead, NC

Current Version | Previous Version | Text Only | Print | Product List | Glossary Off
Versions: 1 2 3 4 5 6 7 8 9 10 11 12 13 14 15 16 17 18 19 20 21 22 23 24 25 26 27 28 29 30 31 32 33 34 35 36 37 38 39 40 41 42 43 44 45 46 47 48 49 50
000 ASUS42 KMHX 230213 RWRMHX WEATHER ROUNDUP FOR EASTERN NORTH CAROLINA NATIONAL WEATHER SERVICE NEWPORT/MOREHEAD CITY NC 1000 PM EDT FRI MAY 22 2015 NOTE: "FAIR" INDICATES FEW OR NO CLOUDS BELOW 12,000 FEET WITH NO SIGNIFICANT WEATHER AND/OR OBSTRUCTIONS TO VISIBILITY NCZ015>017-031-032-045>047-102-103-230300- NORTH COAST CITY SKY/WX TMP DP RH WIND PRES REMARKS EDENTON CLEAR 59 53 80 CALM 30.24R ELIZABETH CITY CLEAR 61 52 72 SW5 30.24R KITTY HAWK CLEAR 61 47 59 CALM 30.23R MANTEO CLEAR 66 49 54 S10 30.25R $$ NCZ045>047-081-094-103-104-230300- CENTRAL COAST CITY SKY/WX TMP DP RH WIND PRES REMARKS FRISCO PTCLDY 53 44 71 E3 30.26R SWANQUARTER N/A 63 N/A N/A E3 30.24R $$ NCZ095-097-098-100-101-230300- SOUTHERN COAST CITY SKY/WX TMP DP RH WIND PRES REMARKS BEAUFORT MOCLDY 62 55 77 CALM 30.26R CEDAR ISLAND N/A 64 N/A N/A E7 30.30R JACKSONVILLE PTCLDY 61 57 87 CALM 30.25R PINEY ISLAND PTCLDY N/A N/A N/A S6 30.26R WILMINGTON CLEAR 62 59 90 CALM 30.25R $$ NCZ011>013-027>030-043-044-078>080-089-090>093-098-230300- COASTAL PLAIN CITY SKY/WX TMP DP RH WIND PRES REMARKS AHOSKIE CLEAR 55 52 89 CALM 30.25R CLINTON CLEAR 60 55 82 CALM 30.26R ELIZABETHTOWN CLEAR 63 54 72 CALM 30.25R GOLDSBORO CLEAR 60 52 74 CALM 30.24R GREENVILLE CLEAR 59 54 82 CALM 30.26R HAVELOCK PTCLDY 62 54 74 CALM 30.27R KENANSVILLE CLEAR 56 54 92 CALM 30.27R KINSTON NOT AVBL NEW BERN PTCLDY 60 54 80 S5 30.27R RICHLANDS PTCLDY 57 50 77 CALM 30.26R ROCKY MOUNT CLEAR 57 50 77 CALM 30.25R WASHINGTON CLEAR N/A N/A N/A CALM 30.26R WHITEVILLE CLEAR 60 54 79 CALM 30.25R $$ AMZ130-135-150-152-154-156-158-170-250-252-270-ANZ085-086-088-633-658-670-230300- MARINE OBSERVATIONS STATION/POSITION TIME TEMP WIND PRES WAVE SWELL AIR SEA DIR/SP/G HT/PER HT/PER (UTC) (F) (DEG/KT/KT) (MB) (FT/S) (FT/S) CHESAPEAKE LIGHT 0100 63 200/ 14/ 14 1023.2 64 E VA BEACH 0150 61 61 220/ 10/ 12 1022.9 2/ 6 2/ 6 DUCK 0100 65 67 150/ 8/ 9 1022.1 2 E DUCK 0111 65 N/A 2/ 7 OREGON INLET 0100 61 69 150/ 4/ 6 1023.6 13E OREGON INLT 0200 62 N/A 3/ 7 HATTERAS CG 0100 64 73 110/ 3/ 5 1023.3 DIAMOND BUOY 0150 67 77 10/ 6/ 8 1024.4 3/ 8 3/ 8 CAPE LOOKOUT 0200 67 100/ 5/ 7 1024.4 BEAUFORT LAB 0100 67 74 160/ 4/ 4 1022.9 27 SE WRIGHTSVLE 0100 67 77 90/ 4/ 6 N/A 5 SE WRIGHTSVLE 0108 70 76 90/ 4/ 6 1023.5 225 S CAPE HAT 0150 72 74 50/ 17/ 21 1021.8 6/ 9 3/ 9 41 SE CHARLESTON 0150 72 76 60/ 14/ 16 1022.9 3/ 6 2/ 6 $$

USA.gov is the U.S. government's official web portal to all federal, state and local government web resources and services.